IRIDIUM 83 [+] (25531 NORAD) Tracking and Keplerian Element Data

This shows tracking and keplerian element data for the satellite.

Feedback or suggestion? Click here.




ElementValue
Catalog25531
NameIRIDIUM 83 [+]
Epoch Orbit3075
Epoch Day198.62446646
Epoch Year2018
RAAN184.7859
Inclination86.3974
Eccentricity0.0002193
Argument of Perigee82.7438
Mean Anonmoly277.4007
Mean Motion14.34218034
Decay Rate-2.6E-07
L11 25531U 98066E 18198.62446646 -.00000026 00000-0 -16281-4 0 9992
L22 25531 86.3974 184.7859 0002193 82.7438 277.4007 14.34218034 30756

Live tracking and technical data element details for IRIDIUM 83 [+] (NORAD 25531). IRIDIUM 83 [+] can be tracked NOW for your location showing map with azimuth and elevation plus other details from your city location.

Track the satellite on the map from your city or location and see movement details for azimuth, elevation, latitude, longitude, range, height, and movement on the map or in text.







IsCatalogInMostPopularTable: catalog: 25531, numindb: 38
Update: records affected: 1



GetName: 25531 IRIDIUM 83 [+]

Hit Count: updated at: Fri, 20 Jul 2018 06:56:52 GMT